Willimantic, CT

9:44 AM EST on January 16, 2018 (GMT -0500)
Windham

Weather History for KIJD - May, 2014

Change the Weather History Date:

Saturday, May 3, 2014

  Actual Average Record
Temperature  
Mean Temperature 54 °F -  
Max Temperature 69 °F 65 °F 91 °F (2001)
Min Temperature 41 °F 41 °F 24 °F (1961)
Degree Days  
Heating Degree Days 10    
Growing Degree Days 4 (Base 50)    
Moisture  
Dew Point 38 °F    
Average Humidity 57    
Maximum Humidity 89    
Minimum Humidity 28    
Precipitation  
Precipitation 0.00 in - - ()
Sea Level Pressure  
Sea Level Pressure 29.80 in    
Wind  
Wind Speed 3 mph (SSW)    
Max Wind Speed 14 mph    
Max Gust Speed 23 mph    
Visibility 10 miles    
Events Rain    
Averages and records for this station are not official NWS values.
T = Trace of Precipitation, MM = Missing Value Source: NWS Daily Summary

Daily Weather History Graph

Daily Weather History Graph

Search for Another Location

Airport or City:

Trip Planner

Search our weather history database for the weather conditions in past years. The results will help you decide how hot, cold, wet, or windy it might be!

Date:

Astronomy

May. 03, 2014 Rise Set
Actual Time 5:42 AM EDT 7:49 PM EDT
Civil Twilight 5:12 AM EDT 8:19 PM EDT
Nautical Twilight 4:34 AM EDT 8:57 PM EDT
Astronomical Twilight 3:54 AM EDT 9:38 PM EDT
Moon 9:09 AM EDT (5/3) 11:53 PM EDT (5/3)
Length of Visible Light 15h 07m
Length of Day
14h 06m
Waxing Crescent, 19% of the Moon is Illuminated
May 3
Waxing Crescent
May 6
First Quarter
May 14
Full
May 21
Last Quarter
May 28
New

Hourly Weather History & Observations

Time (EDT) Temp. Dew Point Humidity Pressure Visibility Wind Dir Wind Speed Gust Speed Precip Events Conditions
12:52 AM 46.0 °F 39.9 °F 79% 29.83 in 10.0 mi Calm Calm - N/A   Clear
1:52 AM 45.0 °F 39.0 °F 80% 29.84 in 10.0 mi Calm Calm - N/A   Clear
2:52 AM 43.0 °F 39.0 °F 86% 29.84 in 10.0 mi Calm Calm - N/A   Clear
3:52 AM 42.1 °F 39.0 °F 89% 29.86 in 10.0 mi Calm Calm - N/A   Clear
4:52 AM 42.1 °F 39.0 °F 89% 29.86 in 10.0 mi Calm Calm - N/A   Clear
5:52 AM 41.0 °F 37.9 °F 89% 29.87 in 9.0 mi Calm Calm - N/A   Clear
6:52 AM 42.1 °F 39.0 °F 89% 29.88 in 10.0 mi Calm Calm - N/A   Clear
7:52 AM 48.0 °F 41.0 °F 77% 29.88 in 10.0 mi Calm Calm - N/A   Clear
8:52 AM 54.0 °F 42.1 °F 64% 29.87 in 10.0 mi Calm Calm - N/A   Clear
9:52 AM 62.1 °F 39.0 °F 43% 29.85 in 10.0 mi South 8.1 mph - N/A   Mostly Cloudy
10:52 AM 64.0 °F 34.0 °F 33% 29.83 in 10.0 mi WSW 8.1 mph 16.1 mph N/A   Mostly Cloudy
11:52 AM 64.9 °F 34.0 °F 32% 29.80 in 10.0 mi South 8.1 mph 17.3 mph N/A   Scattered Clouds
12:52 PM 66.9 °F 35.1 °F 31% 29.78 in 10.0 mi SSW 11.5 mph 17.3 mph N/A   Scattered Clouds
1:52 PM 68.0 °F 35.1 °F 30% 29.77 in 10.0 mi SSW 13.8 mph - N/A   Mostly Cloudy
2:52 PM 68.0 °F 34.0 °F 28% 29.75 in 10.0 mi SW 8.1 mph - N/A   Overcast
3:52 PM 66.9 °F 35.1 °F 31% 29.74 in 10.0 mi SW 11.5 mph - N/A   Mostly Cloudy
4:52 PM 66.9 °F 37.0 °F 33% 29.73 in 10.0 mi SSW 10.4 mph - N/A   Overcast
5:52 PM 66.0 °F 37.0 °F 34% 29.73 in 10.0 mi SSW 12.7 mph 23.0 mph N/A   Mostly Cloudy
6:52 PM 64.0 °F 37.9 °F 38% 29.75 in 10.0 mi SSW 12.7 mph 19.6 mph N/A   Mostly Cloudy
7:52 PM 62.1 °F 37.9 °F 41% 29.76 in 10.0 mi SSW 6.9 mph - N/A   Scattered Clouds
8:52 PM 61.0 °F 37.0 °F 41% 29.77 in 10.0 mi South 3.5 mph - N/A   Mostly Cloudy
9:52 PM 57.9 °F 42.1 °F 56% 29.78 in 10.0 mi WSW 9.2 mph - 0.00 in Rain Light Rain
10:52 PM 54.0 °F 46.0 °F 75% 29.75 in 10.0 mi Calm Calm - 0.00 in   Mostly Cloudy
11:52 PM 51.1 °F 46.0 °F 83% 29.74 in 10.0 mi Calm Calm - N/A   Clear